Regional Weather Roundup
Issued by NWS

Home | Current Version | Previous Version | Text Only | Print | Product List | Glossary Off
Versions: 1 2 3 4 5 6 7 8 9 10 11 12 13 14 15 16 17 18 19 20 21 22 23 24 25 26 27 28 29 30 31 32 33 34 35 36 37 38 39 40 41 42 43 44 45 46 47 48 49 50

000
ASUS43 KMPX 300201
RWRMN
WEATHER ROUNDUP FOR MINNESOTA
NATIONAL WEATHER SERVICE TWIN CITIES/CHANHASSEN MN
900 PM CDT MON AUG 29 2016


NOTE: "FAIR" INDICATES FEW OR NO CLOUDS BELOW 12,000 FEET WITH NO
SIGNIFICANT WEATHER AND/OR OBSTRUCTIONS TO VISIBILITY. N/A MEANS
CURRENT SKY AND/OR WEATHER CONDITIONS ARE NOT AVAILABLE.

MNZ060>063-068>070-300300-
   Twin Cities Metro

CITY           SKY/WX    TMP DP  RH WIND       PRES   REMARKS
TWIN CITIES    MOCLDY    80  68  66 S7        30.14R
ST PAUL        MOCLDY    76  69  79 S8        30.13R
CRYSTAL        CLOUDY    80  68  66 S8        30.11S
BLAINE         CLOUDY    81  73  78 S7        30.11S
LAKEVILLE      CLEAR     70  70 100 CALM      30.15S
EDEN PRAIRIE   MOCLDY    78  70  76 SW6       30.13R
LAKEVILLE      CLEAR     70  70 100 CALM      30.15S
SOUTH ST PAUL  PTCLDY    78  68  72 S3        30.14R
LAKE ELMO      FAIR      73  72  94 S6        30.15R
$$
MNZ001>005-007-008-013>017-022>024-027-028-300300-
   Northwest Minnesota

CITY           SKY/WX    TMP DP  RH WIND       PRES   REMARKS
BEMIDJI        CLEAR     65  59  82 NW6       30.15R
HALLOCK        CLEAR     63  54  72 NW3       30.17S
ROSEAU         CLEAR     61  55  82 NW6       30.17R
WARROAD        CLEAR     63  55  77 W6        30.16S
THIEF RVR FALL CLEAR     63  56  78 NW6       30.18R
CROOKSTON      CLEAR     64  57  77 N6        30.18R
FOSSTON        CLEAR     59  55  88 N3        30.17S
DETROIT LAKES  CLEAR     68  63  83 NW5       30.17S
MOORHEAD       CLEAR     70  61  73 NW6       30.16S
PARK RAPIDS    CLEAR     69  63  81 NW5       30.15R
MAHNOMEN       FAIR      65  63  91 NW5       30.16R
$$
MNZ006-009>011-018-025>026-300300-
   North Central Minnesota

CITY           SKY/WX    TMP DP  RH WIND       PRES   REMARKS
BAUDETTE       CLEAR     63  56  78 NW9       30.13S
FLAG ISLAND    CLEAR     66  57  72 NW3       30.14R
INTL FALLS     CLEAR     65  59  81 NW7       30.10S
WASKISH        CLEAR     68  61  77 NW7       30.13S
BIG FORK       CLEAR     68  64  88 CALM      30.13R
LONGVILLE      CLEAR     68  64  88 CALM      30.14R
GRAND RAPIDS   PTCLDY    69  66  90 CALM      30.15
ORR            CLEAR     66  63  88 CALM      30.09R
COOK           MOCLDY    68  66  94 CALM      30.12R
WALKER         FAIR      67  64  89 NW3       30.14R
$$
MNZ012-019>021-037-300300-
   Northeast Minnesota

CITY           SKY/WX    TMP DP  RH WIND       PRES   REMARKS
DULUTH         TSTM      74  68  81 S24G30    30.11S
ELY            RAIN      68  66  94 SW3       30.11R
HIBBING        CLEAR     65  65 100 CALM      30.12R FOG
EVELETH        FOG       67  66  96 CALM      30.13R VSB 1
DULUTH HARBOR  LGT RAIN  75  66  73 SW21G30   30.10S
TWO HARBORS    LGT RAIN  73  70  88 NW3       30.09R
SILVER BAY     CLOUDY    70  68  94 CALM      30.09R
GRAND MARAIS     N/A     65  64  97 CALM      30.07R
G MARAIS ARPRT MOCLDY    64  61  88 CALM      30.13R
$$
MNZ029>031-032-039>041-046>048-054>057-064-300300-
   West Central Minnesota

CITY           SKY/WX    TMP DP  RH WIND       PRES   REMARKS
FERGUS FALLS   CLEAR     70  66  88 N6        30.16R
WHEATON        CLOUDY    73  70  88 N6        30.17R
MORRIS         CLOUDY    77  72  83 N5        30.13R
ALEXANDRIA     CLOUDY    76  71  85 N10       30.16R
ELBOW LAKE     FAIR      72  69  90 N5        30.16R
WADENA         CLEAR     70  64  83 NW6       30.14R
GLENWOOD       CLOUDY    75  72  88 NW5       30.15R
APPLETON       CLOUDY    81  73  78 N3        30.12R
BENSON         LGT RAIN  79  72  78 W5        30.12R
ORTONVILLE     CLOUDY    79  72  78 CALM      30.15R
MADISON        CLOUDY    79  75  89 N6        30.13R
WILLMAR        MOCLDY    77  73  88 N7        30.14R
$$
MNZ033>034-036-042>043-049>051-058-059-300300-
   Central Minnesota

CITY           SKY/WX    TMP DP  RH WIND       PRES   REMARKS
ST CLOUD       CLOUDY    73  65  75 E12G21    30.12R THUNDER
SAUK CENTRE    FAIR      75  73  91 W3        30.13R
PAYNESVILLE    CLOUDY    75  75 100 CALM      30.13R
AITKIN         CLOUDY    75  64  69 SW3       30.13R
PINE RIVER     CLEAR     73  66  78 N6        30.17R
BRAINERD       MOCLDY    75  69  81 N15       30.13R
STAPLES        PTCLDY    72  66  83 N6        30.14R
LONG PRAIRIE   FAIR      73  70  88 W5        30.14R
LITTLE FALLS   CLOUDY    73  72  94 CALM      30.11S
LITCHFIELD     CLOUDY    77  73  88 CALM      30.13R
BUFFALO        CLOUDY    77  72  83 CALM      30.13S
MAPLE LAKE     CLOUDY    77  74  92 CALM      30.14R
HUTCHINSON     CLEAR     76  74  96 CALM      30.14R
$$
MNZ037-044-045-052-053-300300-
   East Central Minnesota

CITY           SKY/WX    TMP DP  RH WIND       PRES   REMARKS
PRINCETON      TSTM      70  64  83 N18G24    30.15S
MORA           CLOUDY    63  59  88 W10       30.15S
CAMBRIDGE      TSTM      72  61  68 NW5       30.13R
RUSH CITY      TSTM      70  66  89 CALM      30.14S
MOOSE LAKE     CLOUDY    68  63  83 SE5       30.13R
HINCKLEY       CLOUDY    66  64  94 NE3       30.13F
CLOQUET        CLOUDY    72  61  68 S9        30.13S
MCGREGOR       CLOUDY    73  70  88 N7        30.13R
$$
MNZ071>073-080-081-089-090-097-098-300300-
   Southwest Minnesota

CITY           SKY/WX    TMP DP  RH WIND       PRES   REMARKS
MONTEVIDEO     PTCLDY    79  72  78 W7        30.13R
GRANITE FALLS  MOCLDY    79  74  86 S9        30.14R
CANBY          CLOUDY    78  70  75 SW5       30.15R
MARSHALL       MOCLDY    75  71  87 SW7       30.14R
REDWOOD FALLS  CLOUDY    78  72  81 SW8       30.12R
OLIVIA         PTCLDY    73  70  88 S6        30.12S
PIPESTONE        N/A     73  70  88 S1        30.18R
WINDOM         CLEAR     73  68  83 S3        30.17R
WORTHINGTON    PTCLDY    74  70  87 S3        30.18S FOG
JACKSON        PTCLDY    73  70  88 S8        30.19R
TRACY          PTCLDY    76  71  85 SW6       30.16R
SLAYTON        PTCLDY    72  68  88 S5        30.18S
$$
MNZ065>067-074>077-082>085-091>093-300300-
   South Central Minnesota

CITY           SKY/WX    TMP DP  RH WIND       PRES   REMARKS
NEW ULM        CLOUDY    75  70  83 S8        30.14R
ST JAMES       CLEAR     73  70  88 S7        30.16S
FAIRMONT       CLOUDY    71  68  90 S3        30.16F FOG
GLENCOE        PTCLDY    77  74  91 S3        30.13R
FARIBAULT      CLEAR     73  70  88 S3        30.17R
OWATONNA       CLEAR     73  66  78 S3        30.17S
WASECA         CLEAR     72  68  88 S3        30.18S
ALBERT LEA     CLOUDY    73  70  88 CALM      30.18R
$$
MNZ078>079-086>088-094>096-300300-
   Southeast Minnesota

CITY           SKY/WX    TMP DP  RH WIND       PRES   REMARKS
ROCHESTER      CLEAR     71  69  93 CALM      30.18R
RED WING       CLEAR     73  72  94 CALM      30.14R
STANTON        PTCLDY    72  68  88 CALM      30.15R
DODGE CENTER   CLEAR     70  66  88 S3        30.18S
WINONA         CLEAR     77  72  83 CALM      30.17R
AUSTIN         CLOUDY    72  66  83 CALM      30.17S
PRESTON        CLEAR     72  69  91 CALM      30.19S
$$
ABBREVIATIONS USED IN REMARKS
   TC - TEMPERATURES IN CELSIUS
  WCI - WIND CHILL INDEX
   HX - HEAT INDEX
  VSB - VISIBILITY
$$




USA.gov is the U.S. government's official web portal to all federal, state and local government web resources and services.